SCP
0 0 0 0 0 0 0 0 0 0 0 0 0 0 0 0 1 2 2 2 2 2 2 2 2 2 2 1 1 2 2 1 1 1 1 2 3 3 3 2 2 2 2 1
0 0 0 0 0 0 0 0 0 0 0 0 0 0 0 0 1 2 2 2 2 2 2 2 2 2 2 1 2 2 2 1 1 1 1 2 3 4 3 3 2 2 2 1
0 0 0 0 0 0 0 0 0 0 0 0 0 0 0 0 1 1 2 2 2 2 1 1 1 1 1 1 1 2 2 1 1 1 1 2 3 4 4 3 3 3 2 2
0 0 0 0 0 0 0 0 0 0 0 0 0 0 0 0 0 1 1 2 2 1 1 1 1 1 1 1 1 2 2 1 1 1 1 2 3 5 5 4 4 4 3 2
0 0 0 0 0 0 0 0 0 0 0 0 0 0 0 0 0 0 1 1 2 1 1 1 1 1 1 1 1 1 1 1 1 1 1 1 3 5 6 6 5 5 4 3
0 0 0 0 0 0 0 0 0 0 0 0 0 0 0 0 0 0 1 1 2 2 1 1 1 1 1 1 1 1 1 0 0 1 1 1 2 3 5 6 6 6 5 5
0 0 0 0 0 0 0 0 0 0 0 0 0 0 0 0 0 1 1 1 2 2 2 1 1 1 1 1 1 0 0 0 0 0 0 1 1 2 3 5 7 7 7 6
0 0 0 0 0 0 0 0 0 0 0 0 0 0 0 0 0 1 2 2 2 2 2 1 1 1 1 1 1 1 1 0 0 0 0 0 1 1 1 3 5 7 7 8
0 0 0 0 0 0 0 0 0 0 0 0 0 0 0 0 1 2 3 2 2 2 2 1 1 1 1 1 1 1 1 1 0 0 0 0 1 1 1 1 3 5 6 7
0 0 0 0 0 0 0 0 0 0 0 0 0 0 0 1 1 2 3 2 2 2 2 2 2 2 2 2 2 1 1 1 0 0 0 0 0 1 1 1 1 3 4 5
0 0 0 0 0 0 0 0 0 0 0 0 0 0 1 1 1 2 2 2 2 2 2 2 2 3 3 2 1 1 1 1 0 0 0 0 0 0 0 0 0 1 2 3
0 0 0 0 0 0 0 0 0 0 0 0 0 0 1 1 2 2 1 1 1 2 2 2 2 2 2 1 1 1 1 1 0 0 0 0 0 0 0 0 0 0 1 1
0 0 0 0 0 0 0 0 0 0 0 0 0 0 1 1 1 1 1 1 1 1 1 1 1 1 1 1 1 1 1 0 0 0 0 0 0 0 0 0 0 0 0 0
0 0 0 0 0 0 0 0 0 0 0 0 0 0 0 0 1 1 0 0 0 0 1 1 1 1 1 1 1 1 1 0 0 0 0 0 0 0 0 0 0 0 0 0
0 0 0 0 0 0 0 0 0 0 0 0 0 0 0 0 0 0 0 0 0 0 0 1 1 1 1 1 1 0 0 0 0 0 0 0 0 0 0 0 0 0 0 0
0 0 0 0 0 0 0 0 0 0 0 0 0 0 0 0 0 0 0 0 0 0 0 1 1 0 0 1 1 0 0 0 0 0 0 0 0 0 0 0 0 0 0 0
0 0 0 0 0 0 0 0 0 0 0 0 0 0 0 0 0 0 0 0 0 0 0 0 0 0 0 1 1 1 1 0 0 0 0 0 0 0 0 0 0 0 0 0
0 0 0 0 0 0 0 0 0 0 0 0 0 0 0 0 0 0 0 0 0 0 0 0 0 0 0 0 1 1 1 1 1 0 0 0 0 0 0 0 0 0 0 0
0 0 0 0 0 0 0 0 0 0 0 0 0 0 0 0 0 0 0 0 0 0 0 0 0 0 0 0 0 1 1 1 1 1 0 0 0 0 0 0 0 0 0 0
0 0 0 0 0 0 0 0 0 0 0 0 0 0 0 0 0 0 0 0 0 0 0 0 0 0 0 0 0 1 1 1 1 1 0 0 0 0 0 0 0 0 0 0
0 0 0 0 0 0 0 0 0 0 0 0 0 0 0 0 0 0 0 0 0 0 0 0 0 0 0 1 1 1 1 1 1 1 1 1 0 0 0 0 0 0 0 0
0 0 0 0 0 0 0 0 0 0 0 0 0 0 0 0 0 0 0 0 0 0 0 0 0 0 1 1 1 1 1 1 1 1 1 1 0 0 0 0 0 0 0 0
0 0 0 0 0 0 0 0 0 0 0 0 0 0 0 0 0 0 0 0 0 0 0 0 0 0 1 1 2 2 1 1 1 1 0 0 0 0 0 0 0 0 0 0
0 0 0 0 0 0 0 0 0 0 0 0 0 0 0 0 0 0 0 0 0 0 0 0 0 1 1 1 2 2 1 1 1 0 0 0 0 0 0 0 0 0 0 0
0 0 0 0 0 0 0 0 0 0 0 0 0 0 0 0 0 0 0 0 0 0 0 0 0 0 1 1 1 1 1 1 1 0 0 0 0 0 0 0 0 0 0 0
0 0 0 0 0 0 0 0 0 0 0 0 0 0 0 0 0 0 0 0 0 0 0 0 0 0 1 1 1 1 1 0 0 0 0 0 0 0 0 0 0 0 0 0
0 0 0 0 0 0 0 0 0 0 0 0 0 0 0 0 0 0 0 0 0 0 0 0 0 0 0 0 0 0 0 0 0 0 0 0 0 0 0 0 0 0 0 0
Wind_Speed
13 12 10 11 11 9 10 9 9 7 5 3 1 2 2 2 1 3 4 3 3 3 2 2 2 2 2 2 3 4 4 3 2 2 2 2 2 1 1 1 0 1 1 2
14 13 12 12 11 11 10 10 10 8 6 3 2 2 2 1 1 2 2 3 2 2 2 1 1 2 3 2 2 4 4 4 3 2 2 2 2 2 1 1 1 1 1 2
11 11 11 10 7 8 7 7 8 8 4 1 2 1 1 1 0 1 1 2 2 1 1 2 1 2 2 2 2 3 4 4 3 3 2 2 3 2 2 2 1 1 1 1
9 10 11 3 2 3 3 5 5 3 2 2 1 1 1 1 0 1 2 1 1 0 0 1 1 1 2 2 3 3 3 3 3 3 3 2 3 3 2 2 1 2 2 2
7 9 9 3 1 2 4 5 3 3 2 3 2 1 1 2 3 2 2 1 1 1 1 1 1 1 1 2 3 3 3 3 3 3 3 3 3 3 3 2 1 2 2 2
7 9 8 1 2 2 4 3 3 4 3 3 2 2 1 3 4 3 3 2 1 1 1 1 1 1 2 2 3 3 3 3 2 3 4 3 3 3 3 3 2 2 2 2
9 10 5 2 3 2 3 2 4 4 4 4 3 3 3 4 4 3 3 1 1 1 1 1 1 1 3 3 3 2 2 2 2 2 3 3 3 3 3 3 3 3 3 2
7 8 4 3 3 2 3 4 5 5 4 4 4 4 4 4 3 3 3 2 1 1 1 1 2 2 3 3 2 2 2 2 2 2 2 2 2 3 3 3 3 3 2 2
3 2 2 3 3 4 4 4 5 5 5 5 4 3 3 3 3 3 3 2 1 1 2 2 2 2 2 1 2 2 3 3 3 2 2 2 2 2 2 2 2 2 2 2
5 3 2 3 4 4 5 5 5 5 4 4 4 4 4 3 3 3 3 2 1 2 2 2 2 1 2 1 2 2 4 4 3 3 3 3 2 2 2 2 2 3 3 3
8 6 4 3 3 4 4 5 6 6 4 4 3 3 3 3 3 3 3 2 1 1 2 2 2 2 1 1 2 2 2 3 3 3 3 3 3 2 3 3 4 3 3 3
7 5 6 5 4 5 5 5 6 6 5 5 4 3 4 3 3 3 3 2 2 1 1 2 2 2 2 1 2 2 2 2 2 2 2 2 2 1 2 3 4 5 4 3
7 6 6 6 5 5 6 6 5 5 5 5 4 3 4 4 3 2 2 3 2 2 2 2 2 2 2 1 1 2 2 2 2 2 2 3 3 3 2 1 2 3 4 4
5 6 7 6 6 6 6 6 5 5 5 5 4 3 3 3 3 2 2 3 3 2 2 2 2 2 2 1 1 1 2 2 2 2 2 3 3 3 3 3 2 1 2 4
7 7 7 6 6 6 5 4 5 5 5 4 4 3 3 3 3 3 2 2 2 3 2 2 2 2 1 1 1 2 1 1 1 1 2 2 2 2 2 3 3 2 1 1
7 6 5 6 6 5 5 5 4 4 4 4 3 3 3 2 2 2 2 2 2 3 3 2 2 2 1 1 1 1 1 2 1 1 2 2 2 2 3 3 3 3 3 3
6 5 5 4 4 4 4 4 4 4 4 4 4 3 2 2 2 2 2 2 3 3 2 2 2 2 2 1 1 1 1 1 2 1 2 2 2 3 3 3 2 2 2 3
4 3 4 4 4 4 4 4 3 3 3 4 3 3 3 2 2 2 2 3 3 3 3 2 2 2 2 1 1 1 1 1 1 1 2 2 2 2 2 3 3 3 2 3
3 3 3 4 3 3 4 4 3 3 3 3 3 3 3 3 2 3 3 3 3 3 4 3 2 2 2 1 2 1 1 1 1 2 2 2 2 1 2 2 2 2 2 2
3 3 3 3 3 3 4 4 3 3 3 3 3 3 3 3 2 3 3 2 2 2 3 3 2 2 2 1 2 1 1 1 2 2 2 1 1 2 2 2 2 2 2 2
3 3 4 4 4 4 4 4 3 3 3 3 3 3 3 3 3 3 3 3 3 2 3 3 2 2 1 1 2 1 1 2 2 2 2 2 2 2 2 2 2 2 2 2
3 3 3 4 4 4 4 4 3 3 3 3 3 3 3 3 3 3 3 2 2 3 2 1 1 2 3 3 1 1 1 2 1 1 2 2 2 2 3 2 2 2 2 2
2 3 4 4 4 4 4 4 3 3 3 3 3 2 2 3 2 2 3 2 2 3 2 1 2 3 3 2 1 2 2 2 1 1 1 2 2 2 2 2 2 2 2 2
3 3 4 4 4 4 4 4 4 3 3 3 2 2 2 2 2 1 2 3 4 3 2 2 3 3 3 1 1 2 2 2 2 2 2 2 1 1 2 2 2 2 2 2
3 4 4 4 4 3 3 4 4 3 3 2 3 2 2 1 1 2 2 2 2 2 2 2 3 4 2 1 1 2 2 2 2 1 1 1 2 2 2 2 2 2 2 2
3 3 3 3 3 2 2 2 2 2 2 2 2 2 2 2 2 2 1 2 2 3 2 2 1 2 2 2 2 2 2 2 2 1 2 2 2 2 2 2 2 2 2 2
3 3 2 2 2 2 2 2 2 3 3 3 3 3 2 2 2 2 2 2 2 2 2 2 1 1 2 2 2 2 2 1 2 1 2 2 2 2 2 3 2 2 2 2
Wind_Direction
285 286 282 279 279 274 269 272 274 283 290 289 27 95 98 106 96 94 102 107 122 128 126 136 155 158 143 155 158 153 151 157 176 175 146 156 146 142 137 120 107 92 93 96
284 281 275 274 273 267 266 273 275 273 277 307 56 65 91 79 71 102 119 125 124 141 149 165 177 167 156 150 164 157 158 164 169 160 143 159 155 153 154 137 109 82 90 94
282 288 283 268 273 268 262 268 274 277 286 355 38 14 32 74 200 159 125 126 133 169 190 185 196 184 165 164 168 161 162 156 154 154 144 165 166 159 162 158 142 141 133 129
277 281 269 265 354 337 299 286 294 304 326 338 12 6 57 63 39 59 61 86 88 305 266 280 213 173 165 167 168 155 156 158 161 161 158 169 169 165 173 176 167 166 160 159
272 274 274 249 342 316 294 293 321 320 336 354 2 344 40 61 45 47 31 53 54 317 309 283 275 179 154 167 161 156 157 165 170 168 167 173 176 175 182 184 192 183 169 168
267 271 274 324 29 342 287 263 25 17 8 358 328 300 37 44 36 30 22 38 11 323 311 294 282 187 177 184 178 177 168 172 181 174 171 179 184 183 181 169 193 198 185 180
257 263 271 12 356 313 269 16 29 14 12 353 348 8 14 15 17 10 356 356 336 318 307 288 287 227 203 203 194 175 160 169 183 186 185 182 181 179 178 177 189 200 190 196
252 255 263 37 349 354 14 12 1 0 359 357 0 12 8 5 356 343 331 322 299 283 282 278 261 236 215 201 182 166 167 178 190 190 189 188 179 184 182 181 192 205 205 209
286 290 6 32 24 3 355 348 355 351 350 346 339 343 338 338 331 324 320 315 311 292 285 278 268 245 236 183 160 177 182 191 191 192 182 178 179 178 179 181 195 206 205 205
287 274 315 342 0 3 352 342 337 328 326 329 326 334 338 335 329 323 313 304 305 306 291 282 275 271 252 190 181 196 196 193 193 191 191 189 185 182 177 188 203 207 206 210
281 287 296 294 325 335 338 335 325 318 315 323 324 322 324 321 320 316 312 312 298 267 286 294 293 293 269 200 180 201 201 197 198 198 191 188 188 194 194 200 197 200 205 198
274 294 297 301 310 319 319 317 320 323 326 329 324 321 325 323 315 316 322 324 322 324 314 307 306 303 287 234 208 203 210 209 203 197 191 188 184 192 214 211 207 206 206 197
290 299 301 301 308 317 313 310 313 314 316 315 315 319 316 306 302 318 332 337 328 319 313 310 311 307 309 277 226 220 224 215 206 205 199 196 191 185 195 229 195 201 213 210
301 300 290 291 297 300 299 304 307 307 311 309 311 316 310 316 328 335 328 327 326 322 317 315 311 300 303 294 237 232 228 220 218 210 201 202 204 202 196 191 197 225 232 216
277 278 279 287 288 291 294 295 297 303 309 311 314 313 316 323 324 320 322 328 331 328 324 317 308 295 301 286 243 239 238 205 199 209 208 209 209 200 198 202 203 203 199 214
280 277 277 279 282 289 292 290 289 293 296 301 305 304 308 311 311 323 337 348 333 319 311 304 308 323 348 334 286 256 240 223 211 208 213 219 216 207 203 204 209 208 206 201
272 272 275 279 283 288 290 290 290 293 300 306 306 309 312 310 316 329 332 328 309 306 309 313 324 346 342 327 303 270 246 215 214 224 222 227 224 211 201 198 204 212 219 205
281 291 297 295 295 295 294 293 294 299 309 313 314 316 311 306 309 312 314 315 317 324 326 326 333 346 324 320 307 283 246 204 211 229 233 228 230 225 208 204 210 215 219 205
327 317 317 317 315 312 311 307 312 317 314 309 306 301 299 301 303 306 306 308 311 312 313 326 333 329 311 313 312 293 251 237 244 248 246 240 242 246 242 234 226 222 211 196
360 1 345 331 324 318 311 308 309 313 312 307 303 300 298 298 300 298 300 301 304 308 321 332 327 308 293 283 298 283 264 251 246 247 248 242 237 244 246 252 250 230 217 208
2 355 347 338 328 318 310 308 308 304 305 304 298 293 294 301 304 299 296 297 310 325 322 323 318 307 300 303 279 281 265 251 248 248 244 239 240 246 248 247 250 252 236 223
345 335 329 326 321 319 321 319 316 312 309 304 301 300 299 298 299 296 290 288 307 314 311 311 319 335 334 330 288 273 268 261 252 245 239 235 233 234 238 237 236 242 243 234
315 316 314 313 316 317 318 320 320 314 308 304 300 295 287 284 281 283 294 306 318 320 313 309 332 335 324 321 302 282 274 272 264 258 261 260 254 246 239 238 239 239 241 242
302 306 309 313 313 311 315 325 326 320 313 308 302 293 282 282 291 294 286 305 315 313 313 314 316 310 308 302 290 282 282 279 270 261 260 260 265 268 258 247 245 241 240 248
301 302 304 310 312 313 316 319 318 319 317 311 309 310 305 294 288 296 298 300 313 316 306 302 304 304 300 294 293 292 288 278 281 290 283 280 279 276 274 270 264 254 242 241
300 301 300 299 305 308 306 308 312 315 314 315 317 325 329 331 328 323 324 326 328 324 318 314 299 295 292 301 300 289 281 281 280 275 272 273 274 275 274 273 273 269 258 247
293 293 291 290 296 302 306 306 305 309 316 315 317 326 325 323 323 320 319 319 317 312 308 305 293 286 296 299 298 301 302 296 290 282 273 270 269 266 264 264 265 267 267 260